Weather History for Owensboro, KY

Change the Weather History Date:

Thursday, December 5, 2013

  Actual Average Record
Temperature  
Mean Temperature 46 °F -  
Max Temperature 63 °F 49 °F 72 °F (1933)
Min Temperature 28 °F 30 °F 15 °F (1935)
Degree Days  
Heating Degree Days 20    
Moisture  
Dew Point 42 °F    
Average Humidity 95    
Maximum Humidity 100    
Minimum Humidity 83    
Precipitation  
Precipitation 0.50 in - - ()
Sea Level Pressure  
Sea Level Pressure 30.02 in    
Wind  
Wind Speed 11 mph (NW)    
Max Wind Speed 16 mph    
Max Gust Speed 23 mph    
Visibility 6 miles    
Events Rain , Thunderstorm    
Averages and records for this station are not official NWS values.
T = Trace of Precipitation, MM = Missing Value Source: NWS Daily Summary

Daily Weather History Graph

Daily Weather History Graph

Search for Another Location

Airport:

Trip Planner

Search our weather history database for the weather conditions in past years. The results will help you decide how hot, cold, wet, or windy it might be!

Date:

Astronomy

Dec. 05, 2013 Rise Set
Actual Time 6:49 AM CST 4:29 PM CST
Civil Twilight 6:20 AM CST 4:58 PM CST
Nautical Twilight 5:47 AM CST 5:31 PM CST
Astronomical Twilight 5:15 AM CST 6:03 PM CST
Moon 9:10 AM CST (12/5) 7:48 PM CST (12/5)
Length of Visible Light 10h 38m
Length of Day
9h 40m
Waxing Crescent, 11% of the Moon is Illuminated
Dec 5
Waxing Crescent
Dec 9
First Quarter
Dec 17
Full
Dec 25
Last Quarter
Jan 1
New

Hourly Weather History & Observations

Time (CST) Temp. Windchill Dew Point Humidity Pressure Visibility Wind Dir Wind Speed Gust Speed Precip Events Conditions
12:56 AM 63.9 °F - 63.0 °F 97% 29.80 in 7.0 mi WNW 8.1 mph - 0.00 in Rain Light Rain
1:47 AM 62.6 °F - 62.6 °F 100% 29.81 in 2.5 mi West 4.6 mph - 0.11 in Rain Heavy Rain
1:56 AM 63.0 °F - 63.0 °F 100% 29.81 in 1.0 mi WNW 6.9 mph - 0.30 in Rain Heavy Rain
2:06 AM 62.6 °F - 62.6 °F 100% 29.81 in 1.5 mi WSW 13.8 mph 17.3 mph 0.04 in Rain Light Rain
2:11 AM 62.6 °F - 62.6 °F 100% 29.81 in 3.0 mi WSW 10.4 mph - 0.05 in Rain Rain
2:25 AM 62.6 °F - 62.6 °F 100% 29.82 in 6.0 mi SW 10.4 mph - 0.05 in Rain Light Rain
2:56 AM 61.9 °F - 61.9 °F 100% 29.81 in 4.0 mi West 9.2 mph - 0.08 in Rain Light Rain
3:04 AM 59.0 °F - 59.0 °F 100% 29.83 in 6.0 mi NW 12.7 mph 23.0 mph 0.00 in Rain Light Rain
3:08 AM 57.2 °F - 57.2 °F 100% 29.83 in 7.0 mi NW 11.5 mph 23.0 mph 0.00 in Rain Light Rain
3:15 AM 55.4 °F - 55.4 °F 100% 29.84 in 9.0 mi NW 16.1 mph - 0.00 in Rain Light Rain
3:56 AM 52.9 °F - 52.0 °F 97% 29.85 in 9.0 mi NW 11.5 mph - 0.00 in   Overcast
4:39 AM 51.8 °F - 51.8 °F 100% 29.88 in 6.0 mi NW 13.8 mph - N/A Thunderstorm Overcast
4:48 AM 51.8 °F - 51.8 °F 100% 29.88 in 6.0 mi NW 15.0 mph - 0.00 in Rain Light Rain
4:56 AM 50.0 °F - 50.0 °F 100% 29.89 in 4.0 mi NNW 15.0 mph - 0.01 in Rain Light Rain
5:56 AM 47.8 °F - 46.9 °F 97% 29.93 in 6.0 mi NNW 11.5 mph - 0.00 in Rain Light Rain
6:15 AM 46.4 °F 40.4 °F 46.4 °F 100% 29.94 in 7.0 mi NNW 13.8 mph 23.0 mph 0.00 in Rain Light Rain
6:56 AM 45.0 °F 39.3 °F 43.0 °F 93% 29.95 in 6.0 mi NW 11.5 mph 18.4 mph 0.02 in Rain Light Rain
7:35 AM 44.6 °F 38.1 °F 41.0 °F 87% 29.99 in 6.0 mi NNW 13.8 mph 20.7 mph 0.01 in Rain Light Rain
7:56 AM 41.9 °F 35.0 °F 39.9 °F 93% 29.99 in 3.0 mi NW 12.7 mph 18.4 mph 0.03 in Rain Heavy Rain
8:13 AM 41.0 °F 35.2 °F 39.2 °F 93% 30.01 in 1.8 mi NW 9.2 mph - 0.03 in Rain Heavy Rain
8:22 AM 41.0 °F 35.8 °F 41.0 °F 100% 30.03 in 2.5 mi WNW 8.1 mph - 0.05 in Rain Rain
8:43 AM 41.0 °F 34.3 °F 39.2 °F 93% 30.03 in 5.0 mi NW 11.5 mph - 0.06 in Rain Light Rain
8:56 AM 41.0 °F 35.2 °F 39.9 °F 96% 30.04 in 5.0 mi NW 9.2 mph - 0.06 in Rain Light Rain
9:56 AM 39.9 °F 31.4 °F 37.9 °F 93% 30.08 in 7.0 mi NW 16.1 mph - 0.00 in   Overcast
10:05 AM 39.2 °F 31.2 °F 37.4 °F 93% 30.08 in 7.0 mi NW 13.8 mph 20.7 mph 0.00 in Rain Light Rain
10:56 AM 37.9 °F 28.9 °F 34.9 °F 89% 30.09 in 8.0 mi NW 16.1 mph - 0.00 in   Overcast
11:56 AM 36.9 °F 29.1 °F 32.9 °F 86% 30.05 in 8.0 mi NNW 11.5 mph - 0.00 in   Overcast
12:23 PM 37.4 °F 29.3 °F 33.8 °F 87% 30.05 in 8.0 mi NNW 12.7 mph - N/A   Overcast
12:56 PM 36.9 °F 28.7 °F 32.0 °F 83% 30.06 in 8.0 mi NNW 12.7 mph - 0.00 in   Overcast
1:56 PM 36.0 °F 26.3 °F 32.0 °F 86% 30.09 in 8.0 mi NW 16.1 mph - N/A   Overcast
2:56 PM 32.9 °F 25.3 °F 31.1 °F 93% 30.12 in 10.0 mi North 9.2 mph - 0.00 in   Overcast
3:56 PM 32.9 °F 23.7 °F 31.1 °F 93% 30.13 in 8.0 mi North 12.7 mph - 0.00 in Rain Light Rain
4:56 PM 32.0 °F 24.2 °F 30.0 °F 92% 30.13 in 10.0 mi North 9.2 mph - 0.00 in   Overcast
5:56 PM 32.0 °F 23.6 °F 29.1 °F 89% 30.15 in 10.0 mi North 10.4 mph - 0.00 in Rain Light Rain
6:56 PM 32.0 °F 23.0 °F 31.1 °F 96% 30.19 in 7.0 mi NNW 11.5 mph - 0.00 in   Overcast
6:58 PM 32.0 °F 22.5 °F 30.2 °F 93% 30.18 in 8.0 mi NNW 12.7 mph - N/A   Overcast
7:56 PM 30.0 °F 20.0 °F 28.0 °F 92% 30.17 in 7.0 mi NNE 12.7 mph - 0.00 in   Light Freezing Rain
8:56 PM 31.1 °F 22.4 °F 29.1 °F 92% 30.22 in 8.0 mi North 10.4 mph - 0.00 in   Overcast
9:56 PM 30.0 °F 22.4 °F 28.0 °F 92% 30.20 in 7.0 mi North 8.1 mph - 0.00 in   Light Freezing Drizzle
10:03 PM 30.2 °F 21.3 °F 28.4 °F 93% 30.17 in 10.0 mi North 10.4 mph - 0.00 in   Overcast
10:56 PM 29.1 °F 20.0 °F 28.0 °F 96% 30.22 in 5.0 mi North 10.4 mph - 0.00 in   Overcast
11:01 PM 28.4 °F 18.5 °F 28.4 °F 100% 30.20 in 4.0 mi North 11.5 mph - 0.00 in   Overcast
11:13 PM 28.4 °F 19.7 °F 28.4 °F 100% 30.18 in 3.0 mi NNE 9.2 mph - 0.00 in   Overcast
11:21 PM 28.4 °F 20.4 °F 28.4 °F 100% 30.18 in 4.0 mi North 8.1 mph - 0.00 in   Overcast
11:56 PM 29.1 °F 20.6 °F 28.0 °F 96% 30.19 in 8.0 mi North 9.2 mph - 0.00 in   Overcast